TimeHST,TemperatureF,Dew PointF,Humidity,Sea Level PressureIn,VisibilityMPH,Wind Direction,Wind SpeedMPH,Gust SpeedMPH,PrecipitationIn,Events,Conditions,WindDirDegrees,DateUTC
12:54 AM,69.1,57.9,68,30.22,10.0,NNE,12.7,19.6,0.00,,Overcast,30,2013-02-12 10:54:00
1:54 AM,68.0,57.0,68,30.21,10.0,ENE,10.4,23.0,N/A,,Partly Cloudy,60,2013-02-12 11:54:00
2:54 AM,66.9,55.9,68,30.19,10.0,ENE,10.4,-,N/A,,Mostly Cloudy,60,2013-02-12 12:54:00
3:54 AM,68.0,57.9,70,30.18,10.0,NNE,10.4,17.3,N/A,,Mostly Cloudy,30,2013-02-12 13:54:00
4:09 AM,68.0,59.0,73,30.17,10.0,NE,9.2,24.2,N/A,,Overcast,40,2013-02-12 14:09:00
4:29 AM,68.0,57.2,68,30.17,10.0,NE,9.2,25.3,N/A,,Overcast,50,2013-02-12 14:29:00
4:54 AM,66.9,57.9,73,30.18,10.0,NE,13.8,20.7,N/A,,Mostly Cloudy,50,2013-02-12 14:54:00
5:35 AM,66.2,60.8,83,30.17,10.0,NE,15.0,27.6,0.00,Rain,Light Rain,40,2013-02-12 15:35:00
5:54 AM,64.9,60.1,84,30.19,10.0,NE,11.5,18.4,0.00,,Mostly Cloudy,40,2013-02-12 15:54:00
6:54 AM,66.0,60.1,81,30.20,10.0,NE,10.4,20.7,0.00,,Scattered Clouds,40,2013-02-12 16:54:00
7:54 AM,66.9,59.0,76,30.21,10.0,NE,12.7,20.7,N/A,,Scattered Clouds,40,2013-02-12 17:54:00
8:54 AM,69.1,60.1,73,30.22,10.0,NNE,10.4,24.2,N/A,,Scattered Clouds,30,2013-02-12 18:54:00
9:54 AM,70.0,59.0,68,30.22,10.0,NNE,11.5,21.9,N/A,,Scattered Clouds,30,2013-02-12 19:54:00
10:54 AM,72.0,59.0,64,30.21,10.0,NNE,12.7,21.9,N/A,,Scattered Clouds,30,2013-02-12 20:54:00
11:01 AM,73.4,59.0,61,30.19,10.0,NNE,13.8,21.9,N/A,,Overcast,20,2013-02-12 21:01:00
11:23 AM,73.4,60.8,65,30.19,10.0,ENE,16.1,24.2,N/A,,Overcast,60,2013-02-12 21:23:00
11:39 AM,73.4,59.0,61,30.18,10.0,ENE,17.3,26.5,N/A,,Overcast,60,2013-02-12 21:39:00
11:47 AM,73.4,57.2,57,30.18,10.0,NE,11.5,23.0,N/A,,Overcast,50,2013-02-12 21:47:00
11:54 AM,72.0,59.0,64,30.19,10.0,NE,11.5,19.6,N/A,,Mostly Cloudy,40,2013-02-12 21:54:00
12:01 PM,73.4,59.0,61,30.18,10.0,NE,9.2,24.2,N/A,,Overcast,40,2013-02-12 22:01:00
12:17 PM,71.6,60.8,69,30.17,10.0,North,13.8,23.0,N/A,,Overcast,10,2013-02-12 22:17:00
12:54 PM,73.0,62.1,68,30.17,10.0,NNE,13.8,20.7,N/A,,Overcast,30,2013-02-12 22:54:00
1:11 PM,73.4,60.8,65,30.15,10.0,NE,13.8,23.0,N/A,,Overcast,40,2013-02-12 23:11:00
1:54 PM,71.1,62.1,73,30.14,10.0,NE,11.5,19.6,N/A,,Mostly Cloudy,40,2013-02-12 23:54:00
2:54 PM,70.0,61.0,73,30.14,10.0,NNE,10.4,23.0,N/A,,Scattered Clouds,30,2013-02-13 00:54:00
3:54 PM,68.0,62.1,81,30.13,6.0,ENE,12.7,21.9,0.00,Rain,Light Rain,60,2013-02-13 01:54:00
3:58 PM,66.2,62.6,88,30.12,5.0,NE,9.2,21.9,0.00,Rain,Light Rain,50,2013-02-13 01:58:00
4:07 PM,66.2,62.6,88,30.12,10.0,NE,9.2,-,0.00,,Overcast,40,2013-02-13 02:07:00
4:54 PM,69.1,59.0,70,30.14,10.0,NE,12.7,21.9,0.00,,Mostly Cloudy,40,2013-02-13 02:54:00
5:37 PM,68.0,60.8,78,30.12,10.0,NE,9.2,-,0.00,,Mostly Cloudy,50,2013-02-13 03:37:00
5:54 PM,68.0,61.0,78,30.14,10.0,NE,12.7,17.3,0.00,Rain,Light Rain,50,2013-02-13 03:54:00
6:05 PM,68.0,60.8,78,30.13,10.0,NE,9.2,18.4,0.00,,Overcast,50,2013-02-13 04:05:00
6:54 PM,68.0,57.9,70,30.15,10.0,NE,10.4,-,0.00,,Overcast,50,2013-02-13 04:54:00
7:42 PM,68.0,57.2,68,30.15,10.0,NE,12.7,21.9,N/A,,Overcast,40,2013-02-13 05:42:00
7:54 PM,68.0,57.9,70,30.17,10.0,NNE,9.2,19.6,N/A,,Overcast,30,2013-02-13 05:54:00
8:21 PM,68.0,57.2,68,30.16,10.0,NNE,9.2,19.6,N/A,,Overcast,30,2013-02-13 06:21:00
8:54 PM,68.0,55.9,65,30.17,10.0,NE,8.1,17.3,N/A,,Overcast,50,2013-02-13 06:54:00
9:54 PM,68.0,55.0,63,30.18,10.0,NE,10.4,18.4,N/A,,Mostly Cloudy,40,2013-02-13 07:54:00
10:54 PM,68.0,55.0,63,30.18,10.0,NE,6.9,-,N/A,,Mostly Cloudy,40,2013-02-13 08:54:00
11:54 PM,66.9,54.0,63,30.17,10.0,NE,12.7,20.7,N/A,,Mostly Cloudy,50,2013-02-13 09:54:00